Location: Newark
(41.8922°N, 9.0050°E)
Time: 07:26:09
(UTC+00:00)

Envisat - Pass Details

Date: 01 February 2020
Orbit: 764 x 766 km, 98.1° (Epoch: 20 February)

Event Time Altitude Azimuth Distance (km) Brightness Sun altitude
Rises 18:06:43 0° 196° (SSW) 3,218 6.6 -16.7°
Reaches altitude 10° 18:09:21 10° 209° (SSW) 2,297 6.0 -17.1°
Maximum altitude 18:13:35 27° 266° (W) 1,458 5.3 -17.9°
Drops below altitude 10° 18:17:50 10° 323° (NW) 2,310 5.9 -18.7°
Sets 18:20:31 0° 335° (NNW) 3,241 6.5 -19.2°
